Terug naar catalogus

FENGYUN 1C DEB

ActiefPO
NORAD 31780·DEBRIS·🇨🇳 China

Gelanceerd May 10, 1999 vanaf Taiyuan Satellite Launch Center

Loading…

Volgende Passages (komende 24 uur)

TLE

VersSource: Space-Track

Epoch: Sep 12, 2026, 11:52 UTC

1 31780U 99025CGF 26255.49464861  .00001076  00000-0  16007-3 0  9997
2 31780  99.3017  91.2982 0146127 292.7193  65.8620 14.70792294 25082

Volg FENGYUN 1C DEB in realtime met AllMySat

Download on the App Store